Blair, NE

12:38 AM CST on February 24, 2018 (GMT -0600)
Blair Municipal

Weather History for KBTA - November, 2012

Change the Weather History Date:

Sunday, November 11, 2012

  Actual Average (KOMA) Record (KOMA)
Temperature  
Mean Temperature 30 °F -  
Max Temperature 37 °F 48 °F 74 °F (1964)
Min Temperature 24 °F 27 °F -3 °F (1986)
Degree Days  
Heating Degree Days 34    
Moisture  
Dew Point 20 °F    
Average Humidity 71    
Maximum Humidity 94    
Minimum Humidity 47    
Precipitation  
Precipitation 0.00 in - - ()
Sea Level Pressure  
Sea Level Pressure 29.94 in    
Wind  
Wind Speed 17 mph (WNW)    
Max Wind Speed 25 mph    
Max Gust Speed 32 mph    
Visibility 9 miles    
Events Rain , Snow    
Averages and records for this station are not official NWS values.
T = Trace of Precipitation, MM = Missing Value Source: NWS Daily Summary

Daily Weather History Graph

Daily Weather History Graph

Search for Another Location

Airport or City:

Trip Planner

Search our weather history database for the weather conditions in past years. The results will help you decide how hot, cold, wet, or windy it might be!

Date:

Astronomy

Nov. 11, 2012 Rise Set
Actual Time 7:08 AM CST 5:07 PM CST
Civil Twilight 6:39 AM CST 5:37 PM CST
Nautical Twilight 6:05 AM CST 6:10 PM CST
Astronomical Twilight 5:33 AM CST 6:43 PM CST
Moon 4:22 AM CST (11/11) 3:33 PM CST (11/11)
Length of Visible Light 10h 58m
Length of Day
9h 59m
Waning Crescent, 7% of the Moon is Illuminated
Nov 11
Waning Crescent
Nov 13
New
Nov 20
First Quarter
Nov 28
Full
Dec 6
Last Quarter

Hourly Weather History & Observations

Time (CST) Temp. Windchill Dew Point Humidity Pressure Visibility Wind Dir Wind Speed Gust Speed Precip Events Conditions
12:35 AM 37.6 °F 27.4 °F 35.2 °F 91% 29.68 in 2.5 mi NW 19.6 mph 27.6 mph N/A Rain Light Rain
12:55 AM 36.7 °F 27.2 °F 34.7 °F 93% 29.70 in 3.0 mi NW 16.1 mph 24.2 mph N/A Rain Light Rain
1:15 AM 34.7 °F 24.0 °F 32.5 °F 92% 29.71 in 3.0 mi NW 18.4 mph 24.2 mph N/A Rain Light Rain
1:35 AM 33.8 °F 22.5 °F 32.0 °F 93% 29.72 in 3.0 mi NW 19.6 mph 27.6 mph N/A   Overcast
1:55 AM 33.3 °F 22.5 °F 31.8 °F 94% 29.72 in 2.5 mi NW 17.3 mph 23.0 mph N/A   Overcast
2:15 AM 32.9 °F 20.4 °F 31.5 °F 94% 29.72 in 2.0 mi NW 23.0 mph 27.6 mph N/A   Overcast
2:35 AM 32.2 °F 21.1 °F 30.7 °F 94% 29.74 in 3.0 mi NW 17.3 mph 25.3 mph N/A Snow Light Snow
2:55 AM 32.0 °F 22.1 °F 30.2 °F 93% 29.77 in 4.0 mi NW 13.8 mph 20.7 mph N/A   Overcast
3:15 AM 31.8 °F 20.2 °F 29.1 °F 90% 29.77 in 5.0 mi NW 18.4 mph 27.6 mph N/A   Overcast
3:35 AM 31.6 °F 20.4 °F 28.9 °F 90% 29.77 in 5.0 mi NW 17.3 mph 23.0 mph N/A   Overcast
3:55 AM 31.5 °F 20.1 °F 28.9 °F 90% 29.77 in 5.0 mi NW 17.3 mph 25.3 mph N/A   Overcast
4:15 AM 30.9 °F 19.4 °F 28.4 °F 90% 29.79 in 7.0 mi NW 17.3 mph 26.5 mph N/A   Overcast
4:35 AM 30.0 °F 18.3 °F 27.0 °F 88% 29.81 in 10.0 mi NW 17.3 mph 28.8 mph N/A   Overcast
4:55 AM 29.7 °F 17.4 °F 26.6 °F 88% 29.78 in 7.0 mi NW 18.4 mph 26.5 mph N/A   Overcast
5:15 AM 28.9 °F 16.9 °F 26.1 °F 89% 29.80 in 10.0 mi NW 17.3 mph 24.2 mph N/A   Overcast
5:35 AM 28.9 °F 16.1 °F 25.7 °F 88% 29.80 in 10.0 mi NW 19.6 mph 26.5 mph N/A   Overcast
5:55 AM 28.8 °F 17.5 °F 25.5 °F 88% 29.81 in 10.0 mi NW 15.0 mph 25.3 mph N/A   Overcast
6:15 AM 28.4 °F 15.8 °F 24.6 °F 86% 29.82 in 10.0 mi NW 18.4 mph 24.2 mph N/A   Overcast
6:35 AM 28.2 °F 16.8 °F 23.5 °F 83% 29.85 in 10.0 mi NW 15.0 mph 24.2 mph N/A   Overcast
6:55 AM 28.0 °F 17.0 °F 23.7 °F 84% 29.83 in 10.0 mi NW 13.8 mph 24.2 mph N/A   Overcast
7:35 AM 27.3 °F 14.0 °F 23.0 °F 84% 29.85 in 10.0 mi NW 19.6 mph 26.5 mph N/A   Overcast
8:15 AM 27.0 °F 12.8 °F 21.2 °F 79% 29.86 in 10.0 mi NW 21.9 mph 29.9 mph N/A   Overcast
8:35 AM 26.8 °F 13.7 °F 20.5 °F 77% 29.91 in 10.0 mi NW 18.4 mph 27.6 mph N/A   Overcast
8:55 AM 27.0 °F 15.2 °F 21.4 °F 79% 29.92 in 10.0 mi NW 15.0 mph - N/A   Overcast
10:15 AM 26.4 °F 13.2 °F 19.4 °F 75% 29.92 in 10.0 mi NW 18.4 mph 24.2 mph N/A   Overcast
10:35 AM 26.8 °F 12.3 °F 18.5 °F 71% 29.92 in 10.0 mi NW 23.0 mph 29.9 mph N/A   Overcast
10:55 AM 27.5 °F 12.6 °F 19.0 °F 71% 29.92 in 10.0 mi NW 25.3 mph 29.9 mph N/A   Scattered Clouds
11:15 AM 28.2 °F 15.2 °F 18.5 °F 67% 29.92 in 10.0 mi NW 19.6 mph 32.2 mph N/A   Clear
11:35 AM 28.2 °F 14.5 °F 19.9 °F 71% 29.95 in 10.0 mi NW 21.9 mph 29.9 mph N/A   Scattered Clouds
12:15 PM 28.9 °F 17.3 °F 19.2 °F 67% 29.95 in 10.0 mi WNW 16.1 mph 25.3 mph N/A   Clear
12:35 PM 29.5 °F 16.8 °F 18.5 °F 64% 29.96 in 10.0 mi NW 19.6 mph 25.3 mph N/A   Scattered Clouds
12:55 PM 30.4 °F 18.7 °F 19.2 °F 63% 29.96 in 10.0 mi NW 17.3 mph 27.6 mph N/A   Clear
1:15 PM 29.5 °F 16.8 °F 17.4 °F 61% 29.96 in 10.0 mi WNW 19.6 mph 26.5 mph N/A   Clear
1:35 PM 30.2 °F 18.9 °F 18.0 °F 60% 29.95 in 10.0 mi WNW 16.1 mph 25.3 mph N/A   Clear
1:55 PM 30.7 °F 19.2 °F 17.4 °F 58% 29.97 in 10.0 mi WNW 17.3 mph 27.6 mph N/A   Clear
2:15 PM 31.1 °F 18.3 °F 17.2 °F 57% 29.96 in 10.0 mi NW 21.9 mph 26.5 mph N/A   Clear
2:35 PM 31.3 °F 19.2 °F 16.2 °F 54% 29.97 in 10.0 mi NW 19.6 mph 24.2 mph N/A   Clear
2:55 PM 31.1 °F 19.7 °F 14.9 °F 51% 29.97 in 10.0 mi WNW 17.3 mph 28.8 mph N/A   Clear
3:15 PM 31.6 °F 20.0 °F 15.1 °F 50% 29.98 in 10.0 mi WNW 18.4 mph 27.6 mph N/A   Clear
3:35 PM 31.3 °F 19.2 °F 13.3 °F 47% 29.98 in 10.0 mi WNW 19.6 mph 26.5 mph N/A   Clear
3:55 PM 31.1 °F 20.1 °F 14.0 °F 49% 30.00 in 10.0 mi NW 16.1 mph 25.3 mph N/A   Clear
4:15 PM 31.3 °F 20.7 °F 14.4 °F 50% 30.01 in 10.0 mi WNW 15.0 mph 21.9 mph N/A   Clear
4:35 PM 30.9 °F 20.7 °F 15.4 °F 53% 30.02 in 10.0 mi WNW 13.8 mph 21.9 mph N/A   Clear
4:55 PM 30.2 °F 20.2 °F 14.7 °F 53% 30.03 in 10.0 mi WNW 12.7 mph 17.3 mph N/A   Clear
5:15 PM 29.7 °F 20.7 °F 14.7 °F 54% 30.03 in 10.0 mi WNW 10.4 mph 20.7 mph N/A   Clear
5:35 PM 28.8 °F 19.5 °F 15.4 °F 58% 30.04 in 10.0 mi WNW 10.4 mph - N/A   Clear
5:55 PM 28.2 °F 18.3 °F 15.1 °F 58% 30.05 in 10.0 mi WNW 11.5 mph 16.1 mph N/A   Clear
6:15 PM 28.0 °F 19.3 °F 14.4 °F 57% 30.07 in 10.0 mi WNW 9.2 mph - N/A   Clear
6:35 PM 27.3 °F 19.9 °F 14.9 °F 60% 30.07 in 10.0 mi WNW 6.9 mph - N/A   Clear
6:55 PM 27.1 °F 19.7 °F 14.9 °F 60% 30.08 in 10.0 mi West 6.9 mph - N/A   Clear
7:15 PM 27.0 °F 18.0 °F 15.4 °F 62% 30.08 in 10.0 mi West 9.2 mph - N/A   Clear
7:35 PM 27.1 °F 18.2 °F 15.1 °F 60% 30.09 in 10.0 mi West 9.2 mph - N/A   Clear
7:55 PM 27.1 °F 18.9 °F 14.9 °F 60% 30.10 in 10.0 mi WNW 8.1 mph - N/A   Clear
8:15 PM 26.4 °F 18.0 °F 14.9 °F 62% 30.10 in 10.0 mi WNW 8.1 mph - N/A   Clear
8:35 PM 25.9 °F 19.2 °F 14.9 °F 63% 30.11 in 10.0 mi WNW 5.8 mph - N/A   Clear
9:15 PM 25.3 °F 17.6 °F 15.8 °F 67% 30.12 in 10.0 mi West 6.9 mph - N/A   Clear
9:35 PM 25.3 °F 16.0 °F 15.8 °F 67% 30.13 in 10.0 mi West 9.2 mph - N/A   Clear
9:55 PM 25.3 °F 16.7 °F 15.8 °F 67% 30.13 in 10.0 mi West 8.1 mph - N/A   Clear
10:15 PM 25.3 °F 16.7 °F 15.4 °F 66% 30.13 in 10.0 mi West 8.1 mph - N/A   Clear
10:35 PM 25.2 °F 16.5 °F 15.4 °F 67% 30.13 in 10.0 mi West 8.1 mph - N/A   Clear
10:55 PM 24.8 °F 16.1 °F 14.9 °F 66% 30.14 in 10.0 mi WNW 8.1 mph - N/A   Clear
11:15 PM 25.7 °F 15.7 °F 14.7 °F 63% 30.14 in 10.0 mi West 10.4 mph - N/A   Clear
11:35 PM 25.7 °F 16.4 °F 14.9 °F 64% 30.14 in 10.0 mi West 9.2 mph - N/A   Clear
11:55 PM 25.3 °F 16.0 °F 14.9 °F 65% 30.14 in 10.0 mi West 9.2 mph - N/A   Clear